{"data":{"norad_id":66366,"epoch":"2026-09-20T22:04:23.359584Z","epoch_age_seconds":57035,"freshness":"FRESH","line1":"1 66366U 25254U   26263.91971481  .00015801  00000+0  51959-3 0  9990","line2":"2 66366  53.1597  44.3956 0001231  81.2355 278.8786 15.31716598 48881","mean_motion":15.31716598,"eccentricity":0.0001231,"inclination_deg":53.1597,"raan_deg":44.3956,"arg_perigee_deg":81.2355,"mean_anomaly_deg":278.8786,"bstar":0.00051959,"rev_number":4888,"period_min":94.012169214608,"perigee_km":469.84742723068,"apogee_km":471.53360856558,"semimajor_km":6848.8275178981,"source":"CELESTRAK","updated_at":"2026-09-21T09:00:35.882779Z"}}